• In Hungary
  • List of Countries
  • For 7 days
  • Water Temperature
  • Satellite Maps
  • Weather Map
  • News
  • Weather Widgets
  • user-avatar
    Login

    Hourly Weather Mozalevo

    Today, 22 July, Sunday

    Time Temperature Precipitation Wind Pressure Humidity
    00:00 +20°C° 0 mm 1 mps 735 mmHg 94%
    01:00 +19°C° 0 mm 1 mps 735 mmHg 94%
    02:00 +19°C° 0 mm 1 mps 735 mmHg 96%
    03:00 +19°C° 0 mm 1 mps 735 mmHg 96%
    04:00 +18°C° 0 mm 2 mps 735 mmHg 96%
    05:00 +18°C° 0 mm 2 mps 735 mmHg 96%
    06:00 +19°C° 0.2 mm 2 mps 735 mmHg 94%
    07:00 +21°C° 0.2 mm 3 mps 735 mmHg 92%
    08:00 +22°C° 0.2 mm 3 mps 735 mmHg 89%
    09:00 +22°C° 0.7 mm 3 mps 735 mmHg 88%
    10:00 +23°C° 0.7 mm 4 mps 735 mmHg 87%
    11:00 +23°C° 0.7 mm 5 mps 735 mmHg 86%
    12:00 +23°C° 0.4 mm 5 mps 735 mmHg 86%
    13:00 +23°C° 0.4 mm 4 mps 734 mmHg 86%
    14:00 +22°C° 0.4 mm 4 mps 734 mmHg 86%
    15:00 +22°C° 0 mm 4 mps 734 mmHg 87%
    16:00 +22°C° 0 mm 4 mps 734 mmHg 87%
    17:00 +22°C° 0 mm 4 mps 734 mmHg 88%
    18:00 +21°C° 0 mm 4 mps 735 mmHg 89%
    19:00 +21°C° 0 mm 4 mps 735 mmHg 90%
    20:00 +20°C° 0 mm 3 mps 735 mmHg 90%
    21:00 +20°C° 0 mm 3 mps 735 mmHg 91%
    22:00 +20°C° 0 mm 4 mps 735 mmHg 91%
    23:00 +20°C° 0 mm 4 mps 735 mmHg 91%

    Tomorrow, 23 July, Monday

    Time Temperature Precipitation Wind Pressure Humidity
    00:00 +19°C° 0 mm 4 mps 735 mmHg 92%
    01:00 +19°C° 0 mm 4 mps 735 mmHg 93%
    02:00 +19°C° 0 mm 4 mps 735 mmHg 94%
    03:00 +19°C° 0 mm 4 mps 735 mmHg 93%
    04:00 +19°C° 0 mm 4 mps 735 mmHg 93%
    05:00 +19°C° 0 mm 4 mps 735 mmHg 93%
    06:00 +19°C° 0 mm 4 mps 735 mmHg 92%
    07:00 +19°C° 0 mm 4 mps 735 mmHg 91%
    08:00 +19°C° 0 mm 4 mps 736 mmHg 91%
    09:00 +20°C° 0.1 mm 4 mps 736 mmHg 89%
    10:00 +20°C° 0.1 mm 4 mps 736 mmHg 88%
    11:00 +21°C° 0.1 mm 4 mps 736 mmHg 87%
    12:00 +21°C° 0.1 mm 4 mps 736 mmHg 85%
    13:00 +22°C° 0.1 mm 4 mps 736 mmHg 83%
    14:00 +22°C° 0.1 mm 5 mps 736 mmHg 81%
    15:00 +22°C° 0.1 mm 5 mps 736 mmHg 83%
    16:00 +21°C° 0.1 mm 5 mps 736 mmHg 84%
    17:00 +21°C° 0.1 mm 5 mps 736 mmHg 86%
    18:00 +20°C° 0 mm 4 mps 736 mmHg 87%
    19:00 +19°C° 0 mm 4 mps 736 mmHg 89%
    20:00 +18°C° 0 mm 3 mps 736 mmHg 90%
    21:00 +18°C° 0 mm 3 mps 736 mmHg 92%
    22:00 +18°C° 0 mm 3 mps 736 mmHg 93%
    23:00 +17°C° 0 mm 3 mps 736 mmHg 94%

    Day after tomorrow, 24 July, Tuesday

    Time Temperature Precipitation Wind Pressure Humidity
    00:00 +17°C° 0 mm 3 mps 736 mmHg 94%
    01:00 +17°C° 0 mm 3 mps 736 mmHg 94%
    02:00 +18°C° 0 mm 3 mps 736 mmHg 94%
    03:00 +18°C° 0.1 mm 3 mps 736 mmHg 94%
    04:00 +18°C° 0.1 mm 3 mps 736 mmHg 95%
    05:00 +18°C° 0.1 mm 3 mps 736 mmHg 95%
    06:00 +18°C° 0.4 mm 3 mps 736 mmHg 95%
    07:00 +19°C° 0.4 mm 3 mps 736 mmHg 95%
    08:00 +19°C° 0.4 mm 3 mps 737 mmHg 94%
    09:00 +20°C° 0.2 mm 3 mps 737 mmHg 93%
    10:00 +21°C° 0.2 mm 3 mps 737 mmHg 91%
    11:00 +21°C° 0.2 mm 3 mps 737 mmHg 89%
    12:00 +22°C° 0.7 mm 3 mps 737 mmHg 88%
    13:00 +24°C° 0.7 mm 3 mps 737 mmHg 86%
    14:00 +25°C° 0.7 mm 3 mps 737 mmHg 85%
    15:00 +25°C° 0.7 mm 3 mps 737 mmHg 85%
    16:00 +25°C° 0.7 mm 3 mps 737 mmHg 85%
    17:00 +25°C° 0.7 mm 3 mps 737 mmHg 86%
    18:00 +24°C° 0.2 mm 3 mps 737 mmHg 88%
    19:00 +22°C° 0.2 mm 3 mps 737 mmHg 91%
    20:00 +21°C° 0.2 mm 3 mps 737 mmHg 94%
    21:00 +21°C° 0 mm 3 mps 738 mmHg 94%
    22:00 +20°C° 0 mm 3 mps 738 mmHg 94%
    23:00 +20°C° 0 mm 3 mps 738 mmHg 94%

    25 July, Wednesday

    Time Temperature Precipitation Wind Pressure Humidity
    00:00 +19°C° 0.3 mm 3 mps 738 mmHg 94%
    01:00 +19°C° 0.3 mm 3 mps 738 mmHg 95%
    02:00 +18°C° 0.3 mm 3 mps 738 mmHg 95%
    03:00 +18°C° 0.1 mm 3 mps 738 mmHg 96%
    04:00 +18°C° 0.1 mm 3 mps 739 mmHg 97%
    05:00 +18°C° 0.1 mm 3 mps 739 mmHg 97%
    06:00 +19°C° 0 mm 4 mps 739 mmHg 94%
    07:00 +19°C° 0 mm 4 mps 739 mmHg 91%
    08:00 +20°C° 0 mm 4 mps 739 mmHg 88%
    09:00 +20°C° 0.3 mm 4 mps 739 mmHg 88%
    10:00 +20°C° 0.3 mm 4 mps 739 mmHg 87%
    11:00 +20°C° 0.3 mm 4 mps 739 mmHg 87%
    12:00 +20°C° 0.2 mm 4 mps 739 mmHg 88%
    13:00 +20°C° 0.2 mm 3 mps 739 mmHg 88%
    14:00 +20°C° 0.2 mm 3 mps 739 mmHg 89%
    15:00 +21°C° 0.1 mm 3 mps 739 mmHg 88%
    16:00 +21°C° 0.1 mm 3 mps 739 mmHg 86%
    17:00 +22°C° 0.1 mm 3 mps 739 mmHg 85%
    18:00 +21°C° 0 mm 3 mps 739 mmHg 88%
    19:00 +21°C° 0 mm 2 mps 740 mmHg 92%
    20:00 +20°C° 0 mm 2 mps 740 mmHg 95%
    21:00 +20°C° 0 mm 2 mps 740 mmHg 95%
    22:00 +19°C° 0 mm 2 mps 740 mmHg 96%
    23:00 +19°C° 0 mm 2 mps 740 mmHg 97%

    26 July, Thursday

    Time Temperature Precipitation Wind Pressure Humidity
    00:00 +19°C° 0 mm 3 mps 740 mmHg 96%
    01:00 +19°C° 0 mm 3 mps 741 mmHg 96%
    02:00 +19°C° 0 mm 3 mps 741 mmHg 96%
    03:00 +18°C° 0 mm 3 mps 741 mmHg 96%
    04:00 +18°C° 0 mm 3 mps 741 mmHg 96%
    05:00 +18°C° 0 mm 3 mps 741 mmHg 95%
    06:00 +19°C° 0 mm 3 mps 742 mmHg 90%
    07:00 +21°C° 0 mm 3 mps 742 mmHg 86%
    08:00 +22°C° 0 mm 4 mps 742 mmHg 81%
    09:00 +23°C° 0 mm 4 mps 742 mmHg 74%
    10:00 +26°C° 0 mm 4 mps 742 mmHg 67%
    11:00 +28°C° 0 mm 4 mps 742 mmHg 60%
    12:00 +28°C° 0 mm 5 mps 742 mmHg 60%
    13:00 +28°C° 0 mm 5 mps 742 mmHg 61%
    14:00 +29°C° 0 mm 5 mps 742 mmHg 61%
    15:00 +28°C° 0 mm 4 mps 742 mmHg 64%
    16:00 +28°C° 0 mm 4 mps 742 mmHg 66%
    17:00 +28°C° 0 mm 4 mps 742 mmHg 68%
    18:00 +26°C° 0.1 mm 4 mps 742 mmHg 73%
    19:00 +24°C° 0.1 mm 3 mps 743 mmHg 78%
    20:00 +22°C° 0.1 mm 3 mps 743 mmHg 83%
    21:00 +21°C° 0 mm 3 mps 743 mmHg 85%
    22:00 +20°C° 0 mm 3 mps 743 mmHg 88%
    23:00 +20°C° 0 mm 3 mps 743 mmHg 91%

    27 July, Friday

    Time Temperature Precipitation Wind Pressure Humidity
    00:00 +19°C° 0.3 mm 3 mps 743 mmHg 92%
    01:00 +19°C° 0.3 mm 3 mps 743 mmHg 93%
    02:00 +19°C° 0.3 mm 3 mps 743 mmHg 95%
    03:00 +19°C° 0.3 mm 3 mps 744 mmHg 94%
    04:00 +19°C° 0.3 mm 3 mps 744 mmHg 93%
    05:00 +20°C° 0.3 mm 4 mps 744 mmHg 92%
    06:00 +21°C° 0 mm 4 mps 744 mmHg 88%
    07:00 +22°C° 0 mm 4 mps 744 mmHg 84%
    08:00 +25°C° 0 mm 5 mps 744 mmHg 80%
    09:00 +26°C° 0.1 mm 5 mps 745 mmHg 76%
    10:00 +27°C° 0.1 mm 5 mps 745 mmHg 71%
    11:00 +28°C° 0.1 mm 5 mps 745 mmHg 67%
    12:00 +28°C° 0 mm 5 mps 745 mmHg 65%
    13:00 +29°C° 0 mm 5 mps 745 mmHg 63%
    14:00 +30°C° 0 mm 5 mps 745 mmHg 61%
    15:00 +29°C° 0 mm 4 mps 745 mmHg 63%
    16:00 +29°C° 0 mm 4 mps 745 mmHg 65%
    17:00 +29°C° 0 mm 4 mps 745 mmHg 67%
    18:00 +27°C° 0 mm 4 mps 745 mmHg 71%
    19:00 +25°C° 0 mm 4 mps 745 mmHg 75%
    20:00 +24°C° 0 mm 3 mps 745 mmHg 80%
    21:00 +22°C° 0 mm 3 mps 745 mmHg 82%
    22:00 +21°C° 0 mm 3 mps 745 mmHg 84%
    23:00 +20°C° 0 mm 3 mps 746 mmHg 87%
    Show more